Tracking 25710 objects as of 5-Jul-2022
HD Live streaming from Space Station
objects crossing your sky now

FENGYUN 1C DEB

Track FENGYUN 1C DEB now!
10-day predictions


NORAD ID: 35204
Int'l Code: 1999-025DPL
Perigee: 780.0 km
Apogee: 862.6 km
Inclination: 98.9 °
Period: 101.2 minutes
Semi major axis: 7192 km
RCS: 0.0049 m2 (small)
Launch date: May 10, 1999
Source: People's Republic of China (PRC)
Launch site: Taiyaun Space Center, China (TSC)

Note: This is SATELLITE DEBRIS
aabbcc
Your satellite tracking list
Your tracking list is empty




NASA's NSSDC Master Catalog

Two Line Element Set (TLE):
1 35204U 99025DPL 22185.80268470  .00001451  00000-0  64926-3 0  9993
2 35204  98.9453 310.4437 0057414  41.7593 115.5632 14.23317975730371
Source of the keplerian elements: AFSPC